Index of /20260428/WXO-DD/model_rdps/10km/12/009
Name Last modified Size Description
Parent Directory -
20260428T12Z_MSC_RDPS_AbsoluteVorticity_IsbL-0250_RLatLon0.09_PT009H.grib2 2026-04-28 14:41 635K
20260428T12Z_MSC_RDPS_AbsoluteVorticity_IsbL-0500_RLatLon0.09_PT009H.grib2 2026-04-28 14:41 577K
20260428T12Z_MSC_RDPS_AbsoluteVorticity_IsbL-0700_RLatLon0.09_PT009H.grib2 2026-04-28 14:41 626K
20260428T12Z_MSC_RDPS_AbsoluteVorticity_IsbL-0850_RLatLon0.09_PT009H.grib2 2026-04-28 14:41 781K
20260428T12Z_MSC_RDPS_AirTemp_AGL-120m_RLatLon0.09_PT009H.grib2 2026-04-28 14:41 393K
20260428T12Z_MSC_RDPS_AirTemp_AGL-2m_RLatLon0.09_PT009H.grib2 2026-04-28 14:41 627K
20260428T12Z_MSC_RDPS_AirTemp_AGL-40m_RLatLon0.09_PT009H.grib2 2026-04-28 14:41 402K
20260428T12Z_MSC_RDPS_AirTemp_AGL-80m_RLatLon0.09_PT009H.grib2 2026-04-28 14:41 397K
20260428T12Z_MSC_RDPS_AirTemp_IsbL-0001_RLatLon0.09_PT009H.grib2 2026-04-28 14:41 280K
20260428T12Z_MSC_RDPS_AirTemp_IsbL-0005_RLatLon0.09_PT009H.grib2 2026-04-28 14:41 292K
20260428T12Z_MSC_RDPS_AirTemp_IsbL-0010_RLatLon0.09_PT009H.grib2 2026-04-28 14:41 300K
20260428T12Z_MSC_RDPS_AirTemp_IsbL-0020_RLatLon0.09_PT009H.grib2 2026-04-28 14:41 315K
20260428T12Z_MSC_RDPS_AirTemp_IsbL-0030_RLatLon0.09_PT009H.grib2 2026-04-28 14:41 335K
20260428T12Z_MSC_RDPS_AirTemp_IsbL-0050_RLatLon0.09_PT009H.grib2 2026-04-28 14:41 313K
20260428T12Z_MSC_RDPS_AirTemp_IsbL-0100_RLatLon0.09_PT009H.grib2 2026-04-28 14:41 429K
20260428T12Z_MSC_RDPS_AirTemp_IsbL-0150_RLatLon0.09_PT009H.grib2 2026-04-28 14:41 434K
20260428T12Z_MSC_RDPS_AirTemp_IsbL-0175_RLatLon0.09_PT009H.grib2 2026-04-28 14:41 426K
20260428T12Z_MSC_RDPS_AirTemp_IsbL-0200_RLatLon0.09_PT009H.grib2 2026-04-28 14:41 429K
20260428T12Z_MSC_RDPS_AirTemp_IsbL-0225_RLatLon0.09_PT009H.grib2 2026-04-28 14:41 430K
20260428T12Z_MSC_RDPS_AirTemp_IsbL-0250_RLatLon0.09_PT009H.grib2 2026-04-28 14:41 438K
20260428T12Z_MSC_RDPS_AirTemp_IsbL-0275_RLatLon0.09_PT009H.grib2 2026-04-28 14:41 419K
20260428T12Z_MSC_RDPS_AirTemp_IsbL-0300_RLatLon0.09_PT009H.grib2 2026-04-28 14:41 424K
20260428T12Z_MSC_RDPS_AirTemp_IsbL-0350_RLatLon0.09_PT009H.grib2 2026-04-28 14:41 435K
20260428T12Z_MSC_RDPS_AirTemp_IsbL-0400_RLatLon0.09_PT009H.grib2 2026-04-28 14:41 436K
20260428T12Z_MSC_RDPS_AirTemp_IsbL-0450_RLatLon0.09_PT009H.grib2 2026-04-28 14:41 442K
20260428T12Z_MSC_RDPS_AirTemp_IsbL-0500_RLatLon0.09_PT009H.grib2 2026-04-28 14:41 417K
20260428T12Z_MSC_RDPS_AirTemp_IsbL-0550_RLatLon0.09_PT009H.grib2 2026-04-28 14:41 435K
20260428T12Z_MSC_RDPS_AirTemp_IsbL-0600_RLatLon0.09_PT009H.grib2 2026-04-28 14:41 452K
20260428T12Z_MSC_RDPS_AirTemp_IsbL-0650_RLatLon0.09_PT009H.grib2 2026-04-28 14:41 468K
20260428T12Z_MSC_RDPS_AirTemp_IsbL-0700_RLatLon0.09_PT009H.grib2 2026-04-28 14:41 384K
20260428T12Z_MSC_RDPS_AirTemp_IsbL-0750_RLatLon0.09_PT009H.grib2 2026-04-28 14:41 417K
20260428T12Z_MSC_RDPS_AirTemp_IsbL-0800_RLatLon0.09_PT009H.grib2 2026-04-28 14:41 460K
20260428T12Z_MSC_RDPS_AirTemp_IsbL-0850_RLatLon0.09_PT009H.grib2 2026-04-28 14:41 505K
20260428T12Z_MSC_RDPS_AirTemp_IsbL-0875_RLatLon0.09_PT009H.grib2 2026-04-28 14:41 522K
20260428T12Z_MSC_RDPS_AirTemp_IsbL-0900_RLatLon0.09_PT009H.grib2 2026-04-28 14:41 528K
20260428T12Z_MSC_RDPS_AirTemp_IsbL-0925_RLatLon0.09_PT009H.grib2 2026-04-28 14:41 537K
20260428T12Z_MSC_RDPS_AirTemp_IsbL-0950_RLatLon0.09_PT009H.grib2 2026-04-28 14:41 540K
20260428T12Z_MSC_RDPS_AirTemp_IsbL-0970_RLatLon0.09_PT009H.grib2 2026-04-28 14:41 532K
20260428T12Z_MSC_RDPS_AirTemp_IsbL-0985_RLatLon0.09_PT009H.grib2 2026-04-28 14:41 524K
20260428T12Z_MSC_RDPS_AirTemp_IsbL-1000_RLatLon0.09_PT009H.grib2 2026-04-28 14:41 510K
20260428T12Z_MSC_RDPS_AirTemp_IsbL-1015_RLatLon0.09_PT009H.grib2 2026-04-28 14:41 507K
20260428T12Z_MSC_RDPS_Albedo_Sfc_RLatLon0.09_PT009H.grib2 2026-04-28 14:41 165K
20260428T12Z_MSC_RDPS_CAPE_Sfc_RLatLon0.09_PT009H.grib2 2026-04-28 14:41 1.7M
20260428T12Z_MSC_RDPS_CIN_Sfc_RLatLon0.09_PT009H.grib2 2026-04-28 14:41 1.2M
20260428T12Z_MSC_RDPS_CloudWater_EAtm_RLatLon0.09_PT009H.grib2 2026-04-28 14:41 222K
20260428T12Z_MSC_RDPS_ConvectivePrecip-Accum_Sfc_RLatLon0.09_PT009H.grib2 2026-04-28 14:41 621K
20260428T12Z_MSC_RDPS_DewPointDepression_AGL-2m_RLatLon0.09_PT009H.grib2 2026-04-28 14:41 417K
20260428T12Z_MSC_RDPS_DewPointDepression_IsbL-0001_RLatLon0.09_PT009H.grib2 2026-04-28 14:41 193
20260428T12Z_MSC_RDPS_DewPointDepression_IsbL-0005_RLatLon0.09_PT009H.grib2 2026-04-28 14:41 193
20260428T12Z_MSC_RDPS_DewPointDepression_IsbL-0010_RLatLon0.09_PT009H.grib2 2026-04-28 14:41 193
20260428T12Z_MSC_RDPS_DewPointDepression_IsbL-0020_RLatLon0.09_PT009H.grib2 2026-04-28 14:41 193
20260428T12Z_MSC_RDPS_DewPointDepression_IsbL-0030_RLatLon0.09_PT009H.grib2 2026-04-28 14:41 193
20260428T12Z_MSC_RDPS_DewPointDepression_IsbL-0050_RLatLon0.09_PT009H.grib2 2026-04-28 14:41 85K
20260428T12Z_MSC_RDPS_DewPointDepression_IsbL-0100_RLatLon0.09_PT009H.grib2 2026-04-28 14:41 132K
20260428T12Z_MSC_RDPS_DewPointDepression_IsbL-0150_RLatLon0.09_PT009H.grib2 2026-04-28 14:41 159K
20260428T12Z_MSC_RDPS_DewPointDepression_IsbL-0175_RLatLon0.09_PT009H.grib2 2026-04-28 14:41 189K
20260428T12Z_MSC_RDPS_DewPointDepression_IsbL-0200_RLatLon0.09_PT009H.grib2 2026-04-28 14:41 227K
20260428T12Z_MSC_RDPS_DewPointDepression_IsbL-0225_RLatLon0.09_PT009H.grib2 2026-04-28 14:41 272K
20260428T12Z_MSC_RDPS_DewPointDepression_IsbL-0250_RLatLon0.09_PT009H.grib2 2026-04-28 14:41 313K
20260428T12Z_MSC_RDPS_DewPointDepression_IsbL-0275_RLatLon0.09_PT009H.grib2 2026-04-28 14:41 319K
20260428T12Z_MSC_RDPS_DewPointDepression_IsbL-0300_RLatLon0.09_PT009H.grib2 2026-04-28 14:41 335K
20260428T12Z_MSC_RDPS_DewPointDepression_IsbL-0350_RLatLon0.09_PT009H.grib2 2026-04-28 14:41 340K
20260428T12Z_MSC_RDPS_DewPointDepression_IsbL-0400_RLatLon0.09_PT009H.grib2 2026-04-28 14:41 354K
20260428T12Z_MSC_RDPS_DewPointDepression_IsbL-0450_RLatLon0.09_PT009H.grib2 2026-04-28 14:41 362K
20260428T12Z_MSC_RDPS_DewPointDepression_IsbL-0500_RLatLon0.09_PT009H.grib2 2026-04-28 14:41 365K
20260428T12Z_MSC_RDPS_DewPointDepression_IsbL-0550_RLatLon0.09_PT009H.grib2 2026-04-28 14:41 376K
20260428T12Z_MSC_RDPS_DewPointDepression_IsbL-0600_RLatLon0.09_PT009H.grib2 2026-04-28 14:41 387K
20260428T12Z_MSC_RDPS_DewPointDepression_IsbL-0650_RLatLon0.09_PT009H.grib2 2026-04-28 14:41 390K
20260428T12Z_MSC_RDPS_DewPointDepression_IsbL-0700_RLatLon0.09_PT009H.grib2 2026-04-28 14:41 402K
20260428T12Z_MSC_RDPS_DewPointDepression_IsbL-0750_RLatLon0.09_PT009H.grib2 2026-04-28 14:41 424K
20260428T12Z_MSC_RDPS_DewPointDepression_IsbL-0800_RLatLon0.09_PT009H.grib2 2026-04-28 14:41 453K
20260428T12Z_MSC_RDPS_DewPointDepression_IsbL-0850_RLatLon0.09_PT009H.grib2 2026-04-28 14:41 475K
20260428T12Z_MSC_RDPS_DewPointDepression_IsbL-0875_RLatLon0.09_PT009H.grib2 2026-04-28 14:41 474K
20260428T12Z_MSC_RDPS_DewPointDepression_IsbL-0900_RLatLon0.09_PT009H.grib2 2026-04-28 14:41 464K
20260428T12Z_MSC_RDPS_DewPointDepression_IsbL-0925_RLatLon0.09_PT009H.grib2 2026-04-28 14:41 455K
20260428T12Z_MSC_RDPS_DewPointDepression_IsbL-0950_RLatLon0.09_PT009H.grib2 2026-04-28 14:41 447K
20260428T12Z_MSC_RDPS_DewPointDepression_IsbL-0970_RLatLon0.09_PT009H.grib2 2026-04-28 14:41 437K
20260428T12Z_MSC_RDPS_DewPointDepression_IsbL-0985_RLatLon0.09_PT009H.grib2 2026-04-28 14:41 431K
20260428T12Z_MSC_RDPS_DewPointDepression_IsbL-1000_RLatLon0.09_PT009H.grib2 2026-04-28 14:41 427K
20260428T12Z_MSC_RDPS_DewPointDepression_IsbL-1015_RLatLon0.09_PT009H.grib2 2026-04-28 14:41 420K
20260428T12Z_MSC_RDPS_DewPoint_AGL-2m_RLatLon0.09_PT009H.grib2 2026-04-28 14:41 399K
20260428T12Z_MSC_RDPS_DownwardLongwaveRadiationFlux-Accum_Sfc_RLatLon0.09_PT009H.grib2 2026-04-28 14:41 433K
20260428T12Z_MSC_RDPS_DownwardShortwaveRadiationFlux-Accum_NTAtm_RLatLon0.09_PT009H.grib2 2026-04-28 14:41 133K
20260428T12Z_MSC_RDPS_DownwardShortwaveRadiationFlux-Accum_Sfc_RLatLon0.09_PT009H.grib2 2026-04-28 14:41 546K
20260428T12Z_MSC_RDPS_FreezingRain-Accum1h_Sfc_RLatLon0.09_PT009H.grib2 2026-04-28 14:41 12K
20260428T12Z_MSC_RDPS_FreezingRain-Accum3h_Sfc_RLatLon0.09_PT009H.grib2 2026-04-28 14:41 12K
20260428T12Z_MSC_RDPS_FreezingRain-Accum_Sfc_RLatLon0.09_PT009H.grib2 2026-04-28 14:41 56K
20260428T12Z_MSC_RDPS_GeopotentialHeight_IsbL-0001_RLatLon0.09_PT009H.grib2 2026-04-28 14:41 278K
20260428T12Z_MSC_RDPS_GeopotentialHeight_IsbL-0005_RLatLon0.09_PT009H.grib2 2026-04-28 14:41 316K
20260428T12Z_MSC_RDPS_GeopotentialHeight_IsbL-0010_RLatLon0.09_PT009H.grib2 2026-04-28 14:41 344K
20260428T12Z_MSC_RDPS_GeopotentialHeight_IsbL-0020_RLatLon0.09_PT009H.grib2 2026-04-28 14:41 310K
20260428T12Z_MSC_RDPS_GeopotentialHeight_IsbL-0030_RLatLon0.09_PT009H.grib2 2026-04-28 14:41 312K
20260428T12Z_MSC_RDPS_GeopotentialHeight_IsbL-0050_RLatLon0.09_PT009H.grib2 2026-04-28 14:41 345K
20260428T12Z_MSC_RDPS_GeopotentialHeight_IsbL-0100_RLatLon0.09_PT009H.grib2 2026-04-28 14:41 292K
20260428T12Z_MSC_RDPS_GeopotentialHeight_IsbL-0150_RLatLon0.09_PT009H.grib2 2026-04-28 14:41 234K
20260428T12Z_MSC_RDPS_GeopotentialHeight_IsbL-0175_RLatLon0.09_PT009H.grib2 2026-04-28 14:41 269K
20260428T12Z_MSC_RDPS_GeopotentialHeight_IsbL-0200_RLatLon0.09_PT009H.grib2 2026-04-28 14:41 271K
20260428T12Z_MSC_RDPS_GeopotentialHeight_IsbL-0225_RLatLon0.09_PT009H.grib2 2026-04-28 14:41 272K
20260428T12Z_MSC_RDPS_GeopotentialHeight_IsbL-0250_RLatLon0.09_PT009H.grib2 2026-04-28 14:41 272K
20260428T12Z_MSC_RDPS_GeopotentialHeight_IsbL-0275_RLatLon0.09_PT009H.grib2 2026-04-28 14:41 271K
20260428T12Z_MSC_RDPS_GeopotentialHeight_IsbL-0300_RLatLon0.09_PT009H.grib2 2026-04-28 14:41 270K
20260428T12Z_MSC_RDPS_GeopotentialHeight_IsbL-0350_RLatLon0.09_PT009H.grib2 2026-04-28 14:41 236K
20260428T12Z_MSC_RDPS_GeopotentialHeight_IsbL-0400_RLatLon0.09_PT009H.grib2 2026-04-28 14:41 233K
20260428T12Z_MSC_RDPS_GeopotentialHeight_IsbL-0450_RLatLon0.09_PT009H.grib2 2026-04-28 14:41 301K
20260428T12Z_MSC_RDPS_GeopotentialHeight_IsbL-0500_RLatLon0.09_PT009H.grib2 2026-04-28 14:41 296K
20260428T12Z_MSC_RDPS_GeopotentialHeight_IsbL-0550_RLatLon0.09_PT009H.grib2 2026-04-28 14:41 292K
20260428T12Z_MSC_RDPS_GeopotentialHeight_IsbL-0600_RLatLon0.09_PT009H.grib2 2026-04-28 14:41 290K
20260428T12Z_MSC_RDPS_GeopotentialHeight_IsbL-0650_RLatLon0.09_PT009H.grib2 2026-04-28 14:41 260K
20260428T12Z_MSC_RDPS_GeopotentialHeight_IsbL-0700_RLatLon0.09_PT009H.grib2 2026-04-28 14:41 259K
20260428T12Z_MSC_RDPS_GeopotentialHeight_IsbL-0750_RLatLon0.09_PT009H.grib2 2026-04-28 14:41 343K
20260428T12Z_MSC_RDPS_GeopotentialHeight_IsbL-0800_RLatLon0.09_PT009H.grib2 2026-04-28 14:41 350K
20260428T12Z_MSC_RDPS_GeopotentialHeight_IsbL-0850_RLatLon0.09_PT009H.grib2 2026-04-28 14:41 358K
20260428T12Z_MSC_RDPS_GeopotentialHeight_IsbL-0875_RLatLon0.09_PT009H.grib2 2026-04-28 14:41 360K
20260428T12Z_MSC_RDPS_GeopotentialHeight_IsbL-0900_RLatLon0.09_PT009H.grib2 2026-04-28 14:41 366K
20260428T12Z_MSC_RDPS_GeopotentialHeight_IsbL-0925_RLatLon0.09_PT009H.grib2 2026-04-28 14:41 369K
20260428T12Z_MSC_RDPS_GeopotentialHeight_IsbL-0950_RLatLon0.09_PT009H.grib2 2026-04-28 14:41 373K
20260428T12Z_MSC_RDPS_GeopotentialHeight_IsbL-0970_RLatLon0.09_PT009H.grib2 2026-04-28 14:41 381K
20260428T12Z_MSC_RDPS_GeopotentialHeight_IsbL-0985_RLatLon0.09_PT009H.grib2 2026-04-28 14:41 390K
20260428T12Z_MSC_RDPS_GeopotentialHeight_IsbL-1000_RLatLon0.09_PT009H.grib2 2026-04-28 14:41 402K
20260428T12Z_MSC_RDPS_GeopotentialHeight_IsbL-1015_RLatLon0.09_PT009H.grib2 2026-04-28 14:41 417K
20260428T12Z_MSC_RDPS_Humidex_Sfc_RLatLon0.09_PT009H.grib2 2026-04-28 14:41 2.4M
20260428T12Z_MSC_RDPS_IcePellets-Accum1h_Sfc_RLatLon0.09_PT009H.grib2 2026-04-28 14:41 5.5K
20260428T12Z_MSC_RDPS_IcePellets-Accum3h_Sfc_RLatLon0.09_PT009H.grib2 2026-04-28 14:41 6.9K
20260428T12Z_MSC_RDPS_IcePellets-Accum_Sfc_RLatLon0.09_PT009H.grib2 2026-04-28 14:41 13K
20260428T12Z_MSC_RDPS_KIndex_Sfc_RLatLon0.09_PT009H.grib2 2026-04-28 14:41 2.5M
20260428T12Z_MSC_RDPS_LatentHeatNetFlux_Sfc_RLatLon0.09_PT009H.grib2 2026-04-28 14:41 305K
20260428T12Z_MSC_RDPS_LiftedIndex-MU-VT_IsbL-0500_RLatLon0.09_PT009H.grib2 2026-04-28 14:41 2.4M
20260428T12Z_MSC_RDPS_NetLongwaveRadiationFlux-Accum_Sfc_RLatLon0.09_PT009H.grib2 2026-04-28 14:41 580K
20260428T12Z_MSC_RDPS_NetShortwaveRadiationFlux-Accum_Sfc_RLatLon0.09_PT009H.grib2 2026-04-28 14:41 542K
20260428T12Z_MSC_RDPS_PlanetaryBoundaryLayerHeight_Sfc_RLatLon0.09_PT009H.grib2 2026-04-28 14:41 1.0M
20260428T12Z_MSC_RDPS_Precip-Accum1h_Sfc_RLatLon0.09_PT009H.grib2 2026-04-28 14:41 1.2M
20260428T12Z_MSC_RDPS_Precip-Accum3h_Sfc_RLatLon0.09_PT009H.grib2 2026-04-28 14:41 1.3M
20260428T12Z_MSC_RDPS_Precip-Accum_Sfc_RLatLon0.09_PT009H.grib2 2026-04-28 14:41 1.6M
20260428T12Z_MSC_RDPS_PrecipRate_Sfc_RLatLon0.09_PT009H.grib2 2026-04-28 14:41 166K
20260428T12Z_MSC_RDPS_PrecipType-Instant_Sfc_RLatLon0.09_PT009H.grib2 2026-04-28 14:41 555K
20260428T12Z_MSC_RDPS_Pressure-Trend3h_Sfc_RLatLon0.09_PT009H.grib2 2026-04-28 14:41 1.2M
20260428T12Z_MSC_RDPS_Pressure_MSL_RLatLon0.09_PT009H.grib2 2026-04-28 14:41 332K
20260428T12Z_MSC_RDPS_Pressure_PVU-1.5_RLatLon0.09_PT009H.grib2 2026-04-28 14:41 2.3M
20260428T12Z_MSC_RDPS_Pressure_PVU-1_RLatLon0.09_PT009H.grib2 2026-04-28 14:41 2.4M
20260428T12Z_MSC_RDPS_Pressure_PVU-2_RLatLon0.09_PT009H.grib2 2026-04-28 14:41 2.4M
20260428T12Z_MSC_RDPS_Pressure_Sfc_RLatLon0.09_PT009H.grib2 2026-04-28 14:41 501K
20260428T12Z_MSC_RDPS_RadiativeTemp_Sfc_RLatLon0.09_PT009H.grib2 2026-04-28 14:41 326K
20260428T12Z_MSC_RDPS_Rain-Accum1h_Sfc_RLatLon0.09_PT009H.grib2 2026-04-28 14:41 597K
20260428T12Z_MSC_RDPS_Rain-Accum3h_Sfc_RLatLon0.09_PT009H.grib2 2026-04-28 14:41 614K
20260428T12Z_MSC_RDPS_Rain-Accum_Sfc_RLatLon0.09_PT009H.grib2 2026-04-28 14:41 1.2M
20260428T12Z_MSC_RDPS_RelativeHumidity_AGL-2m_RLatLon0.09_PT009H.grib2 2026-04-28 14:41 1.0M
20260428T12Z_MSC_RDPS_RelativeHumidity_IsbL-0010_RLatLon0.09_PT009H.grib2 2026-04-28 14:41 622K
20260428T12Z_MSC_RDPS_RelativeHumidity_IsbL-0020_RLatLon0.09_PT009H.grib2 2026-04-28 14:41 648K
20260428T12Z_MSC_RDPS_RelativeHumidity_IsbL-0030_RLatLon0.09_PT009H.grib2 2026-04-28 14:41 608K
20260428T12Z_MSC_RDPS_RelativeHumidity_IsbL-0050_RLatLon0.09_PT009H.grib2 2026-04-28 14:41 373K
20260428T12Z_MSC_RDPS_RelativeHumidity_IsbL-0100_RLatLon0.09_PT009H.grib2 2026-04-28 14:41 280K
20260428T12Z_MSC_RDPS_RelativeHumidity_IsbL-0150_RLatLon0.09_PT009H.grib2 2026-04-28 14:41 426K
20260428T12Z_MSC_RDPS_RelativeHumidity_IsbL-0175_RLatLon0.09_PT009H.grib2 2026-04-28 14:41 497K
20260428T12Z_MSC_RDPS_RelativeHumidity_IsbL-0200_RLatLon0.09_PT009H.grib2 2026-04-28 14:41 565K
20260428T12Z_MSC_RDPS_RelativeHumidity_IsbL-0225_RLatLon0.09_PT009H.grib2 2026-04-28 14:41 628K
20260428T12Z_MSC_RDPS_RelativeHumidity_IsbL-0250_RLatLon0.09_PT009H.grib2 2026-04-28 14:41 699K
20260428T12Z_MSC_RDPS_RelativeHumidity_IsbL-0275_RLatLon0.09_PT009H.grib2 2026-04-28 14:41 732K
20260428T12Z_MSC_RDPS_RelativeHumidity_IsbL-0300_RLatLon0.09_PT009H.grib2 2026-04-28 14:41 775K
20260428T12Z_MSC_RDPS_RelativeHumidity_IsbL-0350_RLatLon0.09_PT009H.grib2 2026-04-28 14:41 792K
20260428T12Z_MSC_RDPS_RelativeHumidity_IsbL-0400_RLatLon0.09_PT009H.grib2 2026-04-28 14:41 807K
20260428T12Z_MSC_RDPS_RelativeHumidity_IsbL-0450_RLatLon0.09_PT009H.grib2 2026-04-28 14:41 811K
20260428T12Z_MSC_RDPS_RelativeHumidity_IsbL-0500_RLatLon0.09_PT009H.grib2 2026-04-28 14:41 816K
20260428T12Z_MSC_RDPS_RelativeHumidity_IsbL-0550_RLatLon0.09_PT009H.grib2 2026-04-28 14:41 846K
20260428T12Z_MSC_RDPS_RelativeHumidity_IsbL-0600_RLatLon0.09_PT009H.grib2 2026-04-28 14:41 863K
20260428T12Z_MSC_RDPS_RelativeHumidity_IsbL-0650_RLatLon0.09_PT009H.grib2 2026-04-28 14:41 873K
20260428T12Z_MSC_RDPS_RelativeHumidity_IsbL-0700_RLatLon0.09_PT009H.grib2 2026-04-28 14:41 896K
20260428T12Z_MSC_RDPS_RelativeHumidity_IsbL-0750_RLatLon0.09_PT009H.grib2 2026-04-28 14:41 937K
20260428T12Z_MSC_RDPS_RelativeHumidity_IsbL-0800_RLatLon0.09_PT009H.grib2 2026-04-28 14:41 1.0M
20260428T12Z_MSC_RDPS_RelativeHumidity_IsbL-0850_RLatLon0.09_PT009H.grib2 2026-04-28 14:41 1.0M
20260428T12Z_MSC_RDPS_RelativeHumidity_IsbL-0875_RLatLon0.09_PT009H.grib2 2026-04-28 14:41 1.1M
20260428T12Z_MSC_RDPS_RelativeHumidity_IsbL-0900_RLatLon0.09_PT009H.grib2 2026-04-28 14:41 1.1M
20260428T12Z_MSC_RDPS_RelativeHumidity_IsbL-0925_RLatLon0.09_PT009H.grib2 2026-04-28 14:41 1.1M
20260428T12Z_MSC_RDPS_RelativeHumidity_IsbL-0950_RLatLon0.09_PT009H.grib2 2026-04-28 14:41 1.1M
20260428T12Z_MSC_RDPS_RelativeHumidity_IsbL-0970_RLatLon0.09_PT009H.grib2 2026-04-28 14:41 1.0M
20260428T12Z_MSC_RDPS_RelativeHumidity_IsbL-0985_RLatLon0.09_PT009H.grib2 2026-04-28 14:41 1.0M
20260428T12Z_MSC_RDPS_RelativeHumidity_IsbL-1000_RLatLon0.09_PT009H.grib2 2026-04-28 14:41 1.0M
20260428T12Z_MSC_RDPS_RelativeHumidity_IsbL-1015_RLatLon0.09_PT009H.grib2 2026-04-28 14:41 1.0M
20260428T12Z_MSC_RDPS_Runoff-Accum_Sfc_RLatLon0.09_PT009H.grib2 2026-04-28 14:41 40K
20260428T12Z_MSC_RDPS_SWEATIndex_Sfc_RLatLon0.09_PT009H.grib2 2026-04-28 14:41 2.4M
20260428T12Z_MSC_RDPS_SeeingIndex_EAtm_RLatLon0.09_PT009H.grib2 2026-04-28 14:41 1.0M
20260428T12Z_MSC_RDPS_SensibleHeatNetFlux_Sfc_RLatLon0.09_PT009H.grib2 2026-04-28 14:41 361K
20260428T12Z_MSC_RDPS_ShowalterIndex_IsbL-0500_RLatLon0.09_PT009H.grib2 2026-04-28 14:41 2.6M
20260428T12Z_MSC_RDPS_SkyTransparencyIndex_EAtm_RLatLon0.09_PT009H.grib2 2026-04-28 14:41 716K
20260428T12Z_MSC_RDPS_Snow-Accum1h_Sfc_RLatLon0.09_PT009H.grib2 2026-04-28 14:41 451K
20260428T12Z_MSC_RDPS_Snow-Accum3h_Sfc_RLatLon0.09_PT009H.grib2 2026-04-28 14:41 450K
20260428T12Z_MSC_RDPS_Snow-Accum_Sfc_RLatLon0.09_PT009H.grib2 2026-04-28 14:41 598K
20260428T12Z_MSC_RDPS_SnowDensity_Sfc_RLatLon0.09_PT009H.grib2 2026-04-28 14:41 174K
20260428T12Z_MSC_RDPS_SnowDepth_Sfc_RLatLon0.09_PT009H.grib2 2026-04-28 14:41 692K
20260428T12Z_MSC_RDPS_SoilTemp_DBS-0to10cm_RLatLon0.09_PT009H.grib2 2026-04-28 14:41 214K
20260428T12Z_MSC_RDPS_SoilTemp_Sfc_RLatLon0.09_PT009H.grib2 2026-04-28 14:41 293K
20260428T12Z_MSC_RDPS_SoilVolumetricIceContent_Sfc_RLatLon0.09_PT009H.grib2 2026-04-28 14:41 167K
20260428T12Z_MSC_RDPS_SoilVolumetricWaterContent_DBS-0to10cm_RLatLon0.09_PT009H.grib2 2026-04-28 14:41 262K
20260428T12Z_MSC_RDPS_SoilVolumetricWaterContent_DBS-0to1cm_RLatLon0.09_PT009H.grib2 2026-04-28 14:41 333K
20260428T12Z_MSC_RDPS_SpecificHumidity_AGL-120m_RLatLon0.09_PT009H.grib2 2026-04-28 14:41 490K
20260428T12Z_MSC_RDPS_SpecificHumidity_AGL-2m_RLatLon0.09_PT009H.grib2 2026-04-28 14:41 658K
20260428T12Z_MSC_RDPS_SpecificHumidity_AGL-40m_RLatLon0.09_PT009H.grib2 2026-04-28 14:41 495K
20260428T12Z_MSC_RDPS_SpecificHumidity_AGL-80m_RLatLon0.09_PT009H.grib2 2026-04-28 14:41 492K
20260428T12Z_MSC_RDPS_SpecificHumidity_IsbL-0001_RLatLon0.09_PT009H.grib2 2026-04-28 14:41 345K
20260428T12Z_MSC_RDPS_SpecificHumidity_IsbL-0005_RLatLon0.09_PT009H.grib2 2026-04-28 14:41 357K
20260428T12Z_MSC_RDPS_SpecificHumidity_IsbL-0010_RLatLon0.09_PT009H.grib2 2026-04-28 14:41 394K
20260428T12Z_MSC_RDPS_SpecificHumidity_IsbL-0020_RLatLon0.09_PT009H.grib2 2026-04-28 14:41 387K
20260428T12Z_MSC_RDPS_SpecificHumidity_IsbL-0030_RLatLon0.09_PT009H.grib2 2026-04-28 14:41 372K
20260428T12Z_MSC_RDPS_SpecificHumidity_IsbL-0050_RLatLon0.09_PT009H.grib2 2026-04-28 14:41 464K
20260428T12Z_MSC_RDPS_SpecificHumidity_IsbL-0100_RLatLon0.09_PT009H.grib2 2026-04-28 14:41 350K
20260428T12Z_MSC_RDPS_SpecificHumidity_IsbL-0150_RLatLon0.09_PT009H.grib2 2026-04-28 14:41 388K
20260428T12Z_MSC_RDPS_SpecificHumidity_IsbL-0175_RLatLon0.09_PT009H.grib2 2026-04-28 14:41 456K
20260428T12Z_MSC_RDPS_SpecificHumidity_IsbL-0200_RLatLon0.09_PT009H.grib2 2026-04-28 14:41 465K
20260428T12Z_MSC_RDPS_SpecificHumidity_IsbL-0225_RLatLon0.09_PT009H.grib2 2026-04-28 14:41 463K
20260428T12Z_MSC_RDPS_SpecificHumidity_IsbL-0250_RLatLon0.09_PT009H.grib2 2026-04-28 14:41 566K
20260428T12Z_MSC_RDPS_SpecificHumidity_IsbL-0275_RLatLon0.09_PT009H.grib2 2026-04-28 14:41 484K
20260428T12Z_MSC_RDPS_SpecificHumidity_IsbL-0300_RLatLon0.09_PT009H.grib2 2026-04-28 14:41 457K
20260428T12Z_MSC_RDPS_SpecificHumidity_IsbL-0350_RLatLon0.09_PT009H.grib2 2026-04-28 14:41 575K
20260428T12Z_MSC_RDPS_SpecificHumidity_IsbL-0400_RLatLon0.09_PT009H.grib2 2026-04-28 14:41 533K
20260428T12Z_MSC_RDPS_SpecificHumidity_IsbL-0450_RLatLon0.09_PT009H.grib2 2026-04-28 14:41 585K
20260428T12Z_MSC_RDPS_SpecificHumidity_IsbL-0500_RLatLon0.09_PT009H.grib2 2026-04-28 14:41 520K
20260428T12Z_MSC_RDPS_SpecificHumidity_IsbL-0550_RLatLon0.09_PT009H.grib2 2026-04-28 14:41 593K
20260428T12Z_MSC_RDPS_SpecificHumidity_IsbL-0600_RLatLon0.09_PT009H.grib2 2026-04-28 14:41 645K
20260428T12Z_MSC_RDPS_SpecificHumidity_IsbL-0650_RLatLon0.09_PT009H.grib2 2026-04-28 14:41 560K
20260428T12Z_MSC_RDPS_SpecificHumidity_IsbL-0700_RLatLon0.09_PT009H.grib2 2026-04-28 14:41 603K
20260428T12Z_MSC_RDPS_SpecificHumidity_IsbL-0750_RLatLon0.09_PT009H.grib2 2026-04-28 14:41 671K
20260428T12Z_MSC_RDPS_SpecificHumidity_IsbL-0800_RLatLon0.09_PT009H.grib2 2026-04-28 14:41 739K
20260428T12Z_MSC_RDPS_SpecificHumidity_IsbL-0850_RLatLon0.09_PT009H.grib2 2026-04-28 14:41 809K
20260428T12Z_MSC_RDPS_SpecificHumidity_IsbL-0875_RLatLon0.09_PT009H.grib2 2026-04-28 14:41 694K
20260428T12Z_MSC_RDPS_SpecificHumidity_IsbL-0900_RLatLon0.09_PT009H.grib2 2026-04-28 14:41 703K
20260428T12Z_MSC_RDPS_SpecificHumidity_IsbL-0925_RLatLon0.09_PT009H.grib2 2026-04-28 14:41 707K
20260428T12Z_MSC_RDPS_SpecificHumidity_IsbL-0950_RLatLon0.09_PT009H.grib2 2026-04-28 14:41 707K
20260428T12Z_MSC_RDPS_SpecificHumidity_IsbL-0970_RLatLon0.09_PT009H.grib2 2026-04-28 14:41 696K
20260428T12Z_MSC_RDPS_SpecificHumidity_IsbL-0985_RLatLon0.09_PT009H.grib2 2026-04-28 14:41 687K
20260428T12Z_MSC_RDPS_SpecificHumidity_IsbL-1000_RLatLon0.09_PT009H.grib2 2026-04-28 14:41 680K
20260428T12Z_MSC_RDPS_SpecificHumidity_IsbL-1015_RLatLon0.09_PT009H.grib2 2026-04-28 14:41 671K
20260428T12Z_MSC_RDPS_SpecificHumidity_Sfc_RLatLon0.09_PT009H.grib2 2026-04-28 14:41 343K
20260428T12Z_MSC_RDPS_StormRelativeHelicity_EtaL-10000_RLatLon0.09_PT009H.grib2 2026-04-28 14:41 1.1M
20260428T12Z_MSC_RDPS_StormSeverityIndex_EtaL-10000_RLatLon0.09_PT009H.grib2 2026-04-28 14:41 1.2M
20260428T12Z_MSC_RDPS_Thickness_IsbL-0850to0700_RLatLon0.09_PT009H.grib2 2026-04-28 14:41 179K
20260428T12Z_MSC_RDPS_Thickness_IsbL-1000to0500_RLatLon0.09_PT009H.grib2 2026-04-28 14:41 202K
20260428T12Z_MSC_RDPS_Thickness_IsbL-1000to0850_RLatLon0.09_PT009H.grib2 2026-04-28 14:41 189K
20260428T12Z_MSC_RDPS_TotalCloudCover_Sfc_RLatLon0.09_PT009H.grib2 2026-04-28 14:41 648K
20260428T12Z_MSC_RDPS_TotalTotalsIndex_Sfc_RLatLon0.09_PT009H.grib2 2026-04-28 14:41 2.4M
20260428T12Z_MSC_RDPS_UVIndex-ClearSky_Sfc_RLatLon0.09_PT009H.grib2 2026-04-28 14:41 202K
20260428T12Z_MSC_RDPS_UVIndex_Sfc_RLatLon0.09_PT009H.grib2 2026-04-28 14:41 467K
20260428T12Z_MSC_RDPS_UpwardLongwaveRadiationFlux_NTAtm_RLatLon0.09_PT009H.grib2 2026-04-28 14:41 391K
20260428T12Z_MSC_RDPS_UpwardShortwaveRadiationFlux_NTAtm_RLatLon0.09_PT009H.grib2 2026-04-28 14:41 509K
20260428T12Z_MSC_RDPS_VerticalVelocity_IsbL-0250_RLatLon0.09_PT009H.grib2 2026-04-28 14:41 441K
20260428T12Z_MSC_RDPS_VerticalVelocity_IsbL-0500_RLatLon0.09_PT009H.grib2 2026-04-28 14:41 551K
20260428T12Z_MSC_RDPS_VerticalVelocity_IsbL-0700_RLatLon0.09_PT009H.grib2 2026-04-28 14:41 604K
20260428T12Z_MSC_RDPS_VerticalVelocity_IsbL-0850_RLatLon0.09_PT009H.grib2 2026-04-28 14:41 703K
20260428T12Z_MSC_RDPS_VerticalWindShear_EtaL-6500_RLatLon0.09_PT009H.grib2 2026-04-28 14:41 1.2M
20260428T12Z_MSC_RDPS_WindChill_Sfc_RLatLon0.09_PT009H.grib2 2026-04-28 14:41 1.1M
20260428T12Z_MSC_RDPS_WindDir_AGL-10m_RLatLon0.09_PT009H.grib2 2026-04-28 14:41 957K
20260428T12Z_MSC_RDPS_WindDir_AGL-120m_RLatLon0.09_PT009H.grib2 2026-04-28 14:41 609K
20260428T12Z_MSC_RDPS_WindDir_AGL-40m_RLatLon0.09_PT009H.grib2 2026-04-28 14:41 629K
20260428T12Z_MSC_RDPS_WindDir_AGL-80m_RLatLon0.09_PT009H.grib2 2026-04-28 14:41 617K
20260428T12Z_MSC_RDPS_WindDir_IsbL-0001_RLatLon0.09_PT009H.grib2 2026-04-28 14:41 273K
20260428T12Z_MSC_RDPS_WindDir_IsbL-0005_RLatLon0.09_PT009H.grib2 2026-04-28 14:41 339K
20260428T12Z_MSC_RDPS_WindDir_IsbL-0010_RLatLon0.09_PT009H.grib2 2026-04-28 14:41 377K
20260428T12Z_MSC_RDPS_WindDir_IsbL-0020_RLatLon0.09_PT009H.grib2 2026-04-28 14:41 410K
20260428T12Z_MSC_RDPS_WindDir_IsbL-0030_RLatLon0.09_PT009H.grib2 2026-04-28 14:41 391K
20260428T12Z_MSC_RDPS_WindDir_IsbL-0050_RLatLon0.09_PT009H.grib2 2026-04-28 14:41 403K
20260428T12Z_MSC_RDPS_WindDir_IsbL-0100_RLatLon0.09_PT009H.grib2 2026-04-28 14:41 411K
20260428T12Z_MSC_RDPS_WindDir_IsbL-0150_RLatLon0.09_PT009H.grib2 2026-04-28 14:41 418K
20260428T12Z_MSC_RDPS_WindDir_IsbL-0175_RLatLon0.09_PT009H.grib2 2026-04-28 14:41 439K
20260428T12Z_MSC_RDPS_WindDir_IsbL-0200_RLatLon0.09_PT009H.grib2 2026-04-28 14:41 444K
20260428T12Z_MSC_RDPS_WindDir_IsbL-0225_RLatLon0.09_PT009H.grib2 2026-04-28 14:41 445K
20260428T12Z_MSC_RDPS_WindDir_IsbL-0250_RLatLon0.09_PT009H.grib2 2026-04-28 14:41 452K
20260428T12Z_MSC_RDPS_WindDir_IsbL-0275_RLatLon0.09_PT009H.grib2 2026-04-28 14:41 478K
20260428T12Z_MSC_RDPS_WindDir_IsbL-0300_RLatLon0.09_PT009H.grib2 2026-04-28 14:41 476K
20260428T12Z_MSC_RDPS_WindDir_IsbL-0350_RLatLon0.09_PT009H.grib2 2026-04-28 14:41 498K
20260428T12Z_MSC_RDPS_WindDir_IsbL-0400_RLatLon0.09_PT009H.grib2 2026-04-28 14:41 518K
20260428T12Z_MSC_RDPS_WindDir_IsbL-0450_RLatLon0.09_PT009H.grib2 2026-04-28 14:41 537K
20260428T12Z_MSC_RDPS_WindDir_IsbL-0500_RLatLon0.09_PT009H.grib2 2026-04-28 14:41 552K
20260428T12Z_MSC_RDPS_WindDir_IsbL-0550_RLatLon0.09_PT009H.grib2 2026-04-28 14:41 566K
20260428T12Z_MSC_RDPS_WindDir_IsbL-0600_RLatLon0.09_PT009H.grib2 2026-04-28 14:41 591K
20260428T12Z_MSC_RDPS_WindDir_IsbL-0650_RLatLon0.09_PT009H.grib2 2026-04-28 14:41 630K
20260428T12Z_MSC_RDPS_WindDir_IsbL-0700_RLatLon0.09_PT009H.grib2 2026-04-28 14:41 671K
20260428T12Z_MSC_RDPS_WindDir_IsbL-0750_RLatLon0.09_PT009H.grib2 2026-04-28 14:41 720K
20260428T12Z_MSC_RDPS_WindDir_IsbL-0800_RLatLon0.09_PT009H.grib2 2026-04-28 14:41 785K
20260428T12Z_MSC_RDPS_WindDir_IsbL-0850_RLatLon0.09_PT009H.grib2 2026-04-28 14:41 859K
20260428T12Z_MSC_RDPS_WindDir_IsbL-0875_RLatLon0.09_PT009H.grib2 2026-04-28 14:41 884K
20260428T12Z_MSC_RDPS_WindDir_IsbL-0900_RLatLon0.09_PT009H.grib2 2026-04-28 14:41 900K
20260428T12Z_MSC_RDPS_WindDir_IsbL-0925_RLatLon0.09_PT009H.grib2 2026-04-28 14:41 911K
20260428T12Z_MSC_RDPS_WindDir_IsbL-0950_RLatLon0.09_PT009H.grib2 2026-04-28 14:41 910K
20260428T12Z_MSC_RDPS_WindDir_IsbL-0970_RLatLon0.09_PT009H.grib2 2026-04-28 14:41 916K
20260428T12Z_MSC_RDPS_WindDir_IsbL-0985_RLatLon0.09_PT009H.grib2 2026-04-28 14:41 924K
20260428T12Z_MSC_RDPS_WindDir_IsbL-1000_RLatLon0.09_PT009H.grib2 2026-04-28 14:41 935K
20260428T12Z_MSC_RDPS_WindDir_IsbL-1015_RLatLon0.09_PT009H.grib2 2026-04-28 14:41 950K
20260428T12Z_MSC_RDPS_WindGust-Max_AGL-10m_RLatLon0.09_PT009H.grib2 2026-04-28 14:41 943K
20260428T12Z_MSC_RDPS_WindGust-Min_AGL-10m_RLatLon0.09_PT009H.grib2 2026-04-28 14:41 972K
20260428T12Z_MSC_RDPS_WindGust_AGL-10m_RLatLon0.09_PT009H.grib2 2026-04-28 14:41 1.0M
20260428T12Z_MSC_RDPS_WindSpeed_AGL-10m_RLatLon0.09_PT009H.grib2 2026-04-28 14:41 835K
20260428T12Z_MSC_RDPS_WindSpeed_AGL-120m_RLatLon0.09_PT009H.grib2 2026-04-28 14:41 543K
20260428T12Z_MSC_RDPS_WindSpeed_AGL-40m_RLatLon0.09_PT009H.grib2 2026-04-28 14:41 537K
20260428T12Z_MSC_RDPS_WindSpeed_AGL-80m_RLatLon0.09_PT009H.grib2 2026-04-28 14:41 533K
20260428T12Z_MSC_RDPS_WindSpeed_IsbL-0001_RLatLon0.09_PT009H.grib2 2026-04-28 14:41 254K
20260428T12Z_MSC_RDPS_WindSpeed_IsbL-0005_RLatLon0.09_PT009H.grib2 2026-04-28 14:41 292K
20260428T12Z_MSC_RDPS_WindSpeed_IsbL-0010_RLatLon0.09_PT009H.grib2 2026-04-28 14:41 304K
20260428T12Z_MSC_RDPS_WindSpeed_IsbL-0020_RLatLon0.09_PT009H.grib2 2026-04-28 14:41 322K
20260428T12Z_MSC_RDPS_WindSpeed_IsbL-0030_RLatLon0.09_PT009H.grib2 2026-04-28 14:41 316K
20260428T12Z_MSC_RDPS_WindSpeed_IsbL-0050_RLatLon0.09_PT009H.grib2 2026-04-28 14:41 347K
20260428T12Z_MSC_RDPS_WindSpeed_IsbL-0100_RLatLon0.09_PT009H.grib2 2026-04-28 14:41 484K
20260428T12Z_MSC_RDPS_WindSpeed_IsbL-0150_RLatLon0.09_PT009H.grib2 2026-04-28 14:41 391K
20260428T12Z_MSC_RDPS_WindSpeed_IsbL-0175_RLatLon0.09_PT009H.grib2 2026-04-28 14:41 441K
20260428T12Z_MSC_RDPS_WindSpeed_IsbL-0200_RLatLon0.09_PT009H.grib2 2026-04-28 14:41 458K
20260428T12Z_MSC_RDPS_WindSpeed_IsbL-0225_RLatLon0.09_PT009H.grib2 2026-04-28 14:41 463K
20260428T12Z_MSC_RDPS_WindSpeed_IsbL-0250_RLatLon0.09_PT009H.grib2 2026-04-28 14:41 467K
20260428T12Z_MSC_RDPS_WindSpeed_IsbL-0275_RLatLon0.09_PT009H.grib2 2026-04-28 14:41 487K
20260428T12Z_MSC_RDPS_WindSpeed_IsbL-0300_RLatLon0.09_PT009H.grib2 2026-04-28 14:41 485K
20260428T12Z_MSC_RDPS_WindSpeed_IsbL-0350_RLatLon0.09_PT009H.grib2 2026-04-28 14:41 493K
20260428T12Z_MSC_RDPS_WindSpeed_IsbL-0400_RLatLon0.09_PT009H.grib2 2026-04-28 14:41 476K
20260428T12Z_MSC_RDPS_WindSpeed_IsbL-0450_RLatLon0.09_PT009H.grib2 2026-04-28 14:41 473K
20260428T12Z_MSC_RDPS_WindSpeed_IsbL-0500_RLatLon0.09_PT009H.grib2 2026-04-28 14:41 472K
20260428T12Z_MSC_RDPS_WindSpeed_IsbL-0550_RLatLon0.09_PT009H.grib2 2026-04-28 14:41 591K
20260428T12Z_MSC_RDPS_WindSpeed_IsbL-0600_RLatLon0.09_PT009H.grib2 2026-04-28 14:41 599K
20260428T12Z_MSC_RDPS_WindSpeed_IsbL-0650_RLatLon0.09_PT009H.grib2 2026-04-28 14:41 619K
20260428T12Z_MSC_RDPS_WindSpeed_IsbL-0700_RLatLon0.09_PT009H.grib2 2026-04-28 14:41 640K
20260428T12Z_MSC_RDPS_WindSpeed_IsbL-0750_RLatLon0.09_PT009H.grib2 2026-04-28 14:41 711K
20260428T12Z_MSC_RDPS_WindSpeed_IsbL-0800_RLatLon0.09_PT009H.grib2 2026-04-28 14:41 757K
20260428T12Z_MSC_RDPS_WindSpeed_IsbL-0850_RLatLon0.09_PT009H.grib2 2026-04-28 14:41 767K
20260428T12Z_MSC_RDPS_WindSpeed_IsbL-0875_RLatLon0.09_PT009H.grib2 2026-04-28 14:41 786K
20260428T12Z_MSC_RDPS_WindSpeed_IsbL-0900_RLatLon0.09_PT009H.grib2 2026-04-28 14:41 798K
20260428T12Z_MSC_RDPS_WindSpeed_IsbL-0925_RLatLon0.09_PT009H.grib2 2026-04-28 14:41 855K
20260428T12Z_MSC_RDPS_WindSpeed_IsbL-0950_RLatLon0.09_PT009H.grib2 2026-04-28 14:41 855K
20260428T12Z_MSC_RDPS_WindSpeed_IsbL-0970_RLatLon0.09_PT009H.grib2 2026-04-28 14:41 857K
20260428T12Z_MSC_RDPS_WindSpeed_IsbL-0985_RLatLon0.09_PT009H.grib2 2026-04-28 14:41 851K
20260428T12Z_MSC_RDPS_WindSpeed_IsbL-1000_RLatLon0.09_PT009H.grib2 2026-04-28 14:41 845K
20260428T12Z_MSC_RDPS_WindSpeed_IsbL-1015_RLatLon0.09_PT009H.grib2 2026-04-28 14:41 837K
20260428T12Z_MSC_RDPS_WindU_AGL-10m_RLatLon0.09_PT009H.grib2 2026-04-28 14:41 433K
20260428T12Z_MSC_RDPS_WindU_AGL-120m_RLatLon0.09_PT009H.grib2 2026-04-28 14:41 415K
20260428T12Z_MSC_RDPS_WindU_AGL-40m_RLatLon0.09_PT009H.grib2 2026-04-28 14:41 535K
20260428T12Z_MSC_RDPS_WindU_AGL-80m_RLatLon0.09_PT009H.grib2 2026-04-28 14:41 417K
20260428T12Z_MSC_RDPS_WindU_IsbL-0001_RLatLon0.09_PT009H.grib2 2026-04-28 14:41 294K
20260428T12Z_MSC_RDPS_WindU_IsbL-0005_RLatLon0.09_PT009H.grib2 2026-04-28 14:41 288K
20260428T12Z_MSC_RDPS_WindU_IsbL-0010_RLatLon0.09_PT009H.grib2 2026-04-28 14:41 296K
20260428T12Z_MSC_RDPS_WindU_IsbL-0020_RLatLon0.09_PT009H.grib2 2026-04-28 14:41 350K
20260428T12Z_MSC_RDPS_WindU_IsbL-0030_RLatLon0.09_PT009H.grib2 2026-04-28 14:41 349K
20260428T12Z_MSC_RDPS_WindU_IsbL-0050_RLatLon0.09_PT009H.grib2 2026-04-28 14:41 375K
20260428T12Z_MSC_RDPS_WindU_IsbL-0100_RLatLon0.09_PT009H.grib2 2026-04-28 14:41 342K
20260428T12Z_MSC_RDPS_WindU_IsbL-0150_RLatLon0.09_PT009H.grib2 2026-04-28 14:41 407K
20260428T12Z_MSC_RDPS_WindU_IsbL-0175_RLatLon0.09_PT009H.grib2 2026-04-28 14:41 434K
20260428T12Z_MSC_RDPS_WindU_IsbL-0200_RLatLon0.09_PT009H.grib2 2026-04-28 14:41 350K
20260428T12Z_MSC_RDPS_WindU_IsbL-0225_RLatLon0.09_PT009H.grib2 2026-04-28 14:41 353K
20260428T12Z_MSC_RDPS_WindU_IsbL-0250_RLatLon0.09_PT009H.grib2 2026-04-28 14:41 355K
20260428T12Z_MSC_RDPS_WindU_IsbL-0275_RLatLon0.09_PT009H.grib2 2026-04-28 14:41 372K
20260428T12Z_MSC_RDPS_WindU_IsbL-0300_RLatLon0.09_PT009H.grib2 2026-04-28 14:41 369K
20260428T12Z_MSC_RDPS_WindU_IsbL-0350_RLatLon0.09_PT009H.grib2 2026-04-28 14:41 479K
20260428T12Z_MSC_RDPS_WindU_IsbL-0400_RLatLon0.09_PT009H.grib2 2026-04-28 14:41 478K
20260428T12Z_MSC_RDPS_WindU_IsbL-0450_RLatLon0.09_PT009H.grib2 2026-04-28 14:41 478K
20260428T12Z_MSC_RDPS_WindU_IsbL-0500_RLatLon0.09_PT009H.grib2 2026-04-28 14:41 477K
20260428T12Z_MSC_RDPS_WindU_IsbL-0550_RLatLon0.09_PT009H.grib2 2026-04-28 14:41 461K
20260428T12Z_MSC_RDPS_WindU_IsbL-0600_RLatLon0.09_PT009H.grib2 2026-04-28 14:41 470K
20260428T12Z_MSC_RDPS_WindU_IsbL-0650_RLatLon0.09_PT009H.grib2 2026-04-28 14:41 488K
20260428T12Z_MSC_RDPS_WindU_IsbL-0700_RLatLon0.09_PT009H.grib2 2026-04-28 14:41 509K
20260428T12Z_MSC_RDPS_WindU_IsbL-0750_RLatLon0.09_PT009H.grib2 2026-04-28 14:41 534K
20260428T12Z_MSC_RDPS_WindU_IsbL-0800_RLatLon0.09_PT009H.grib2 2026-04-28 14:41 574K
20260428T12Z_MSC_RDPS_WindU_IsbL-0850_RLatLon0.09_PT009H.grib2 2026-04-28 14:41 633K
20260428T12Z_MSC_RDPS_WindU_IsbL-0875_RLatLon0.09_PT009H.grib2 2026-04-28 14:41 648K
20260428T12Z_MSC_RDPS_WindU_IsbL-0900_RLatLon0.09_PT009H.grib2 2026-04-28 14:41 655K
20260428T12Z_MSC_RDPS_WindU_IsbL-0925_RLatLon0.09_PT009H.grib2 2026-04-28 14:41 662K
20260428T12Z_MSC_RDPS_WindU_IsbL-0950_RLatLon0.09_PT009H.grib2 2026-04-28 14:41 652K
20260428T12Z_MSC_RDPS_WindU_IsbL-0970_RLatLon0.09_PT009H.grib2 2026-04-28 14:41 652K
20260428T12Z_MSC_RDPS_WindU_IsbL-0985_RLatLon0.09_PT009H.grib2 2026-04-28 14:41 649K
20260428T12Z_MSC_RDPS_WindU_IsbL-1000_RLatLon0.09_PT009H.grib2 2026-04-28 14:41 646K
20260428T12Z_MSC_RDPS_WindU_IsbL-1015_RLatLon0.09_PT009H.grib2 2026-04-28 14:41 778K
20260428T12Z_MSC_RDPS_WindV_AGL-10m_RLatLon0.09_PT009H.grib2 2026-04-28 14:41 432K
20260428T12Z_MSC_RDPS_WindV_AGL-120m_RLatLon0.09_PT009H.grib2 2026-04-28 14:41 530K
20260428T12Z_MSC_RDPS_WindV_AGL-40m_RLatLon0.09_PT009H.grib2 2026-04-28 14:41 533K
20260428T12Z_MSC_RDPS_WindV_AGL-80m_RLatLon0.09_PT009H.grib2 2026-04-28 14:41 531K
20260428T12Z_MSC_RDPS_WindV_IsbL-0001_RLatLon0.09_PT009H.grib2 2026-04-28 14:41 292K
20260428T12Z_MSC_RDPS_WindV_IsbL-0005_RLatLon0.09_PT009H.grib2 2026-04-28 14:41 286K
20260428T12Z_MSC_RDPS_WindV_IsbL-0010_RLatLon0.09_PT009H.grib2 2026-04-28 14:41 296K
20260428T12Z_MSC_RDPS_WindV_IsbL-0020_RLatLon0.09_PT009H.grib2 2026-04-28 14:41 313K
20260428T12Z_MSC_RDPS_WindV_IsbL-0030_RLatLon0.09_PT009H.grib2 2026-04-28 14:41 312K
20260428T12Z_MSC_RDPS_WindV_IsbL-0050_RLatLon0.09_PT009H.grib2 2026-04-28 14:41 342K
20260428T12Z_MSC_RDPS_WindV_IsbL-0100_RLatLon0.09_PT009H.grib2 2026-04-28 14:41 433K
20260428T12Z_MSC_RDPS_WindV_IsbL-0150_RLatLon0.09_PT009H.grib2 2026-04-28 14:41 404K
20260428T12Z_MSC_RDPS_WindV_IsbL-0175_RLatLon0.09_PT009H.grib2 2026-04-28 14:41 432K
20260428T12Z_MSC_RDPS_WindV_IsbL-0200_RLatLon0.09_PT009H.grib2 2026-04-28 14:41 348K
20260428T12Z_MSC_RDPS_WindV_IsbL-0225_RLatLon0.09_PT009H.grib2 2026-04-28 14:41 351K
20260428T12Z_MSC_RDPS_WindV_IsbL-0250_RLatLon0.09_PT009H.grib2 2026-04-28 14:41 353K
20260428T12Z_MSC_RDPS_WindV_IsbL-0275_RLatLon0.09_PT009H.grib2 2026-04-28 14:41 392K
20260428T12Z_MSC_RDPS_WindV_IsbL-0300_RLatLon0.09_PT009H.grib2 2026-04-28 14:41 366K
20260428T12Z_MSC_RDPS_WindV_IsbL-0350_RLatLon0.09_PT009H.grib2 2026-04-28 14:41 371K
20260428T12Z_MSC_RDPS_WindV_IsbL-0400_RLatLon0.09_PT009H.grib2 2026-04-28 14:41 372K
20260428T12Z_MSC_RDPS_WindV_IsbL-0450_RLatLon0.09_PT009H.grib2 2026-04-28 14:41 475K
20260428T12Z_MSC_RDPS_WindV_IsbL-0500_RLatLon0.09_PT009H.grib2 2026-04-28 14:41 474K
20260428T12Z_MSC_RDPS_WindV_IsbL-0550_RLatLon0.09_PT009H.grib2 2026-04-28 14:41 475K
20260428T12Z_MSC_RDPS_WindV_IsbL-0600_RLatLon0.09_PT009H.grib2 2026-04-28 14:41 483K
20260428T12Z_MSC_RDPS_WindV_IsbL-0650_RLatLon0.09_PT009H.grib2 2026-04-28 14:41 502K
20260428T12Z_MSC_RDPS_WindV_IsbL-0700_RLatLon0.09_PT009H.grib2 2026-04-28 14:41 519K
20260428T12Z_MSC_RDPS_WindV_IsbL-0750_RLatLon0.09_PT009H.grib2 2026-04-28 14:41 542K
20260428T12Z_MSC_RDPS_WindV_IsbL-0800_RLatLon0.09_PT009H.grib2 2026-04-28 14:41 580K
20260428T12Z_MSC_RDPS_WindV_IsbL-0850_RLatLon0.09_PT009H.grib2 2026-04-28 14:41 626K
20260428T12Z_MSC_RDPS_WindV_IsbL-0875_RLatLon0.09_PT009H.grib2 2026-04-28 14:41 643K
20260428T12Z_MSC_RDPS_WindV_IsbL-0900_RLatLon0.09_PT009H.grib2 2026-04-28 14:41 653K
20260428T12Z_MSC_RDPS_WindV_IsbL-0925_RLatLon0.09_PT009H.grib2 2026-04-28 14:41 653K
20260428T12Z_MSC_RDPS_WindV_IsbL-0950_RLatLon0.09_PT009H.grib2 2026-04-28 14:41 652K
20260428T12Z_MSC_RDPS_WindV_IsbL-0970_RLatLon0.09_PT009H.grib2 2026-04-28 14:41 652K
20260428T12Z_MSC_RDPS_WindV_IsbL-0985_RLatLon0.09_PT009H.grib2 2026-04-28 14:41 788K
20260428T12Z_MSC_RDPS_WindV_IsbL-1000_RLatLon0.09_PT009H.grib2 2026-04-28 14:41 783K
20260428T12Z_MSC_RDPS_WindV_IsbL-1015_RLatLon0.09_PT009H.grib2 2026-04-28 14:41 824K